Time,TemperatureF,DewpointF,PressureIn,WindDirection,WindDirectionDegrees,WindSpeedMPH,WindSpeedGustMPH,Humidity,HourlyPrecipIn,Conditions,Clouds,dailyrainin,SolarRadiationWatts/m^2,SoftwareType,DateUTC
2013-07-02 00:05:00,70.7,60.8,29.83,SE,136,0.0,3.0,71,0.00,,,0.00,0,Wunderground v.1.15,2013-07-02 07:05:00,
2013-07-02 00:11:00,70.6,61.1,29.83,SE,136,0.0,3.0,72,0.00,,,0.00,0,Wunderground v.1.15,2013-07-02 07:11:00,
2013-07-02 00:16:00,70.6,61.1,29.83,SE,136,0.0,3.0,72,0.00,,,0.00,0,Wunderground v.1.15,2013-07-02 07:16:00,
2013-07-02 00:22:00,70.6,61.1,29.83,SE,136,0.0,3.0,72,0.00,,,0.00,0,Wunderground v.1.15,2013-07-02 07:22:00,
2013-07-02 00:27:00,70.6,61.5,29.83,SE,136,0.0,3.0,73,0.00,,,0.00,0,Wunderground v.1.15,2013-07-02 07:27:00,
2013-07-02 00:32:00,70.6,61.5,29.83,SE,136,0.0,3.0,73,0.00,,,0.00,0,Wunderground v.1.15,2013-07-02 07:32:00,
2013-07-02 00:37:00,70.7,61.6,29.82,SE,136,0.0,3.0,73,0.00,,,0.00,0,Wunderground v.1.15,2013-07-02 07:37:00,
2013-07-02 00:43:00,70.8,61.7,29.82,SE,136,0.0,3.0,73,0.00,,,0.00,0,Wunderground v.1.15,2013-07-02 07:43:00,
2013-07-02 00:49:00,70.7,61.6,29.82,SE,136,0.0,3.0,73,0.00,,,0.00,0,Wunderground v.1.15,2013-07-02 07:49:00,
2013-07-02 00:55:00,70.8,61.7,29.82,SE,136,0.0,3.0,73,0.00,,,0.00,0,Wunderground v.1.15,2013-07-02 07:55:00,
2013-07-02 01:01:00,70.8,62.1,29.83,SE,136,0.0,3.0,74,0.00,,,0.00,0,Wunderground v.1.15,2013-07-02 08:01:00,
2013-07-02 01:07:00,70.7,62.0,29.83,SE,144,0.0,3.0,74,0.00,,,0.00,0,Wunderground v.1.15,2013-07-02 08:07:00,
2013-07-02 01:13:00,70.6,61.5,29.84,SE,146,1.0,4.0,73,0.00,,,0.00,0,Wunderground v.1.15,2013-07-02 08:13:00,
2013-07-02 01:19:00,70.4,61.3,29.84,SSE,151,1.0,4.0,73,0.00,,,0.00,0,Wunderground v.1.15,2013-07-02 08:19:00,
2013-07-02 01:25:00,70.1,61.0,29.83,SSE,150,1.0,3.0,73,0.00,,,0.00,0,Wunderground v.1.15,2013-07-02 08:25:00,
2013-07-02 01:31:00,69.8,60.8,29.83,SSE,150,1.0,3.0,73,0.00,,,0.00,0,Wunderground v.1.15,2013-07-02 08:31:00,
2013-07-02 01:37:00,69.5,60.8,29.82,SSE,150,0.0,3.0,74,0.00,,,0.00,0,Wunderground v.1.15,2013-07-02 08:37:00,
2013-07-02 01:43:00,69.3,60.7,29.82,SSE,150,0.0,3.0,74,0.00,,,0.00,0,Wunderground v.1.15,2013-07-02 08:43:00,
2013-07-02 01:48:00,69.0,60.7,29.83,SSE,150,0.0,3.0,75,0.00,,,0.00,0,Wunderground v.1.15,2013-07-02 08:48:00,
2013-07-02 01:54:00,68.9,60.6,29.83,SSE,150,0.0,4.0,75,0.00,,,0.00,0,Wunderground v.1.15,2013-07-02 08:54:00,
2013-07-02 01:59:00,68.8,60.6,29.84,SSE,149,1.0,4.0,75,0.00,,,0.00,0,Wunderground v.1.15,2013-07-02 08:59:00,
2013-07-02 02:04:00,68.6,60.4,29.83,SSE,149,1.0,3.0,75,0.00,,,0.00,0,Wunderground v.1.15,2013-07-02 09:04:00,
2013-07-02 02:10:00,68.4,60.2,29.83,SSE,148,1.0,1.0,75,0.00,,,0.00,0,Wunderground v.1.15,2013-07-02 09:10:00,
2013-07-02 02:16:00,68.1,59.9,29.83,SSE,148,0.0,3.0,75,0.00,,,0.00,0,Wunderground v.1.15,2013-07-02 09:16:00,
2013-07-02 02:21:00,67.9,59.7,29.83,SSE,148,0.0,3.0,75,0.00,,,0.00,0,Wunderground v.1.15,2013-07-02 09:21:00,
2013-07-02 02:26:00,67.7,59.9,29.83,SSE,148,0.0,3.0,76,0.00,,,0.00,0,Wunderground v.1.15,2013-07-02 09:26:00,
2013-07-02 02:32:00,67.4,59.6,29.82,SSE,148,0.0,3.0,76,0.00,,,0.00,0,Wunderground v.1.15,2013-07-02 09:32:00,
2013-07-02 02:38:00,67.2,59.7,29.82,SSE,148,0.0,3.0,77,0.00,,,0.00,0,Wunderground v.1.15,2013-07-02 09:38:00,
2013-07-02 02:44:00,67.1,59.6,29.82,SSE,148,0.0,3.0,77,0.00,,,0.00,0,Wunderground v.1.15,2013-07-02 09:44:00,
2013-07-02 02:49:00,66.9,59.8,29.82,SSE,148,0.0,3.0,78,0.00,,,0.00,0,Wunderground v.1.15,2013-07-02 09:49:00,
2013-07-02 02:55:00,66.7,59.6,29.82,SSE,148,0.0,3.0,78,0.00,,,0.00,0,Wunderground v.1.15,2013-07-02 09:55:00,
2013-07-02 03:01:00,66.6,59.5,29.82,SSE,148,0.0,3.0,78,0.00,,,0.00,0,Wunderground v.1.15,2013-07-02 10:01:00,
2013-07-02 03:06:00,66.5,59.8,29.82,SSE,148,0.0,3.0,79,0.00,,,0.00,0,Wunderground v.1.15,2013-07-02 10:06:00,
2013-07-02 03:12:00,66.4,59.7,29.82,SSE,148,0.0,3.0,79,0.00,,,0.00,0,Wunderground v.1.15,2013-07-02 10:12:00,
2013-07-02 03:18:00,66.3,59.6,29.83,SSE,148,0.0,3.0,79,0.00,,,0.00,0,Wunderground v.1.15,2013-07-02 10:18:00,
2013-07-02 03:23:00,66.3,59.6,29.82,SSE,148,0.0,3.0,79,0.00,,,0.00,0,Wunderground v.1.15,2013-07-02 10:23:00,
2013-07-02 03:29:00,66.2,59.5,29.82,SSE,148,0.0,3.0,79,0.00,,,0.00,0,Wunderground v.1.15,2013-07-02 10:29:00,
2013-07-02 03:34:00,66.2,59.5,29.81,SSE,148,0.0,3.0,79,0.00,,,0.00,0,Wunderground v.1.15,2013-07-02 10:34:00,
2013-07-02 03:39:00,66.1,59.7,29.81,SSE,148,0.0,3.0,80,0.00,,,0.00,0,Wunderground v.1.15,2013-07-02 10:39:00,
2013-07-02 03:44:00,66.1,59.7,29.81,SSE,148,0.0,3.0,80,0.00,,,0.00,0,Wunderground v.1.15,2013-07-02 10:44:00,
2013-07-02 03:49:00,66.1,59.7,29.82,SSE,148,0.0,3.0,80,0.00,,,0.00,0,Wunderground v.1.15,2013-07-02 10:49:00,
2013-07-02 03:55:00,66.1,59.7,29.81,SSE,148,0.0,3.0,80,0.00,,,0.00,0,Wunderground v.1.15,2013-07-02 10:55:00,
2013-07-02 04:00:00,66.0,59.7,29.82,SSE,148,0.0,3.0,80,0.00,,,0.00,0,Wunderground v.1.15,2013-07-02 11:00:00,
2013-07-02 04:05:00,66.0,59.7,29.81,SSE,148,0.0,3.0,80,0.00,,,0.00,0,Wunderground v.1.15,2013-07-02 11:05:00,
2013-07-02 04:11:00,65.9,59.6,29.81,SSE,148,0.0,3.0,80,0.00,,,0.00,0,Wunderground v.1.15,2013-07-02 11:11:00,
2013-07-02 04:17:00,65.9,59.9,29.82,SSE,148,0.0,3.0,81,0.00,,,0.00,0,Wunderground v.1.15,2013-07-02 11:17:00,
2013-07-02 04:22:00,65.9,59.9,29.82,SSE,148,0.0,3.0,81,0.00,,,0.00,0,Wunderground v.1.15,2013-07-02 11:22:00,
2013-07-02 04:27:00,65.9,59.9,29.82,SSE,148,0.0,3.0,81,0.00,,,0.00,0,Wunderground v.1.15,2013-07-02 11:27:00,
2013-07-02 04:33:00,65.8,59.8,29.81,SSE,148,0.0,3.0,81,0.00,,,0.00,0,Wunderground v.1.15,2013-07-02 11:33:00,
2013-07-02 04:39:00,65.8,60.2,29.82,SSE,148,0.0,3.0,82,0.00,,,0.00,0,Wunderground v.1.15,2013-07-02 11:39:00,
2013-07-02 04:44:00,65.6,60.0,29.83,SSE,154,2.0,4.0,82,0.00,,,0.00,0,Wunderground v.1.15,2013-07-02 11:44:00,
2013-07-02 04:49:00,65.5,59.9,29.83,SSE,147,3.0,4.0,82,0.00,,,0.00,0,Wunderground v.1.15,2013-07-02 11:49:00,
2013-07-02 04:55:00,65.4,59.8,29.83,SSE,147,1.0,3.0,82,0.00,,,0.00,0,Wunderground v.1.15,2013-07-02 11:55:00,
2013-07-02 05:00:00,65.3,59.7,29.83,SSE,148,0.0,3.0,82,0.00,,,0.00,0,Wunderground v.1.15,2013-07-02 12:00:00,
2013-07-02 05:05:00,65.2,59.6,29.83,SSE,148,1.0,3.0,82,0.00,,,0.00,0,Wunderground v.1.15,2013-07-02 12:05:00,
2013-07-02 05:11:00,65.0,59.4,29.83,SSE,148,1.0,3.0,82,0.00,,,0.00,0,Wunderground v.1.15,2013-07-02 12:11:00,
2013-07-02 05:17:00,64.9,59.6,29.83,SSE,148,0.0,3.0,83,0.00,,,0.00,0,Wunderground v.1.15,2013-07-02 12:17:00,
2013-07-02 05:22:00,64.9,59.6,29.83,SSE,148,0.0,3.0,83,0.00,,,0.00,0,Wunderground v.1.15,2013-07-02 12:22:00,
2013-07-02 05:28:00,64.8,59.5,29.83,SSE,150,0.0,3.0,83,0.00,,,0.00,0,Wunderground v.1.15,2013-07-02 12:28:00,
2013-07-02 05:33:00,64.6,59.3,29.83,SSE,150,0.0,3.0,83,0.00,,,0.00,0,Wunderground v.1.15,2013-07-02 12:33:00,
2013-07-02 05:34:00,64.6,59.3,29.83,SSE,150,0.0,3.0,83,0.00,,,0.00,0,Wunderground v.1.15,2013-07-02 12:34:00,
2013-07-02 05:40:00,64.3,59.0,29.83,SSE,150,0.0,3.0,83,0.00,,,0.00,0,Wunderground v.1.15,2013-07-02 12:40:00,
2013-07-02 05:46:00,64.2,58.9,29.83,SSE,150,0.0,3.0,83,0.00,,,0.00,0,Wunderground v.1.15,2013-07-02 12:46:00,
2013-07-02 05:51:00,64.1,58.8,29.83,SSE,150,0.0,3.0,83,0.00,,,0.00,0,Wunderground v.1.15,2013-07-02 12:51:00,
2013-07-02 05:56:00,64.1,58.8,29.83,SSE,150,0.0,3.0,83,0.00,,,0.00,5,Wunderground v.1.15,2013-07-02 12:56:00,
2013-07-02 06:01:00,64.0,59.1,29.83,SSE,150,0.0,3.0,84,0.00,,,0.00,7,Wunderground v.1.15,2013-07-02 13:01:00,
2013-07-02 06:07:00,64.0,59.1,29.84,SSE,150,1.0,4.0,84,0.00,,,0.00,11,Wunderground v.1.15,2013-07-02 13:07:00,
2013-07-02 06:12:00,63.9,59.0,29.84,SSE,150,2.0,5.0,84,0.00,,,0.00,12,Wunderground v.1.15,2013-07-02 13:12:00,
2013-07-02 06:18:00,63.8,58.9,29.85,SSE,148,2.0,6.0,84,0.00,,,0.00,18,Wunderground v.1.15,2013-07-02 13:18:00,
2013-07-02 06:24:00,63.6,58.7,29.85,SE,146,1.0,3.0,84,0.00,,,0.00,26,Wunderground v.1.15,2013-07-02 13:24:00,
2013-07-02 06:29:00,63.6,58.7,29.84,SE,146,0.0,3.0,84,0.00,,,0.00,32,Wunderground v.1.15,2013-07-02 13:29:00,
2013-07-02 06:34:00,63.5,58.6,29.84,SE,146,0.0,3.0,84,0.00,,,0.00,35,Wunderground v.1.15,2013-07-02 13:34:00,
2013-07-02 06:39:00,63.4,58.5,29.85,SE,146,0.0,3.0,84,0.00,,,0.00,40,Wunderground v.1.15,2013-07-02 13:39:00,
2013-07-02 06:45:00,63.3,58.4,29.84,SE,146,0.0,3.0,84,0.00,,,0.00,58,Wunderground v.1.15,2013-07-02 13:45:00,
2013-07-02 06:50:00,63.4,58.5,29.84,SE,146,0.0,3.0,84,0.00,,,0.00,81,Wunderground v.1.15,2013-07-02 13:50:00,
2013-07-02 06:56:00,63.5,58.6,29.85,SE,146,0.0,3.0,84,0.00,,,0.00,95,Wunderground v.1.15,2013-07-02 13:56:00,
2013-07-02 07:01:00,63.6,58.7,29.85,SE,146,1.0,3.0,84,0.00,,,0.00,111,Wunderground v.1.15,2013-07-02 14:01:00,
2013-07-02 07:07:00,63.8,58.9,29.85,SE,146,1.0,3.0,84,0.00,,,0.00,128,Wunderground v.1.15,2013-07-02 14:07:00,
2013-07-02 07:13:00,64.1,59.2,29.84,SE,146,0.0,3.0,84,0.00,,,0.00,137,Wunderground v.1.15,2013-07-02 14:13:00,
2013-07-02 07:19:00,64.5,59.2,29.85,SE,146,0.0,3.0,83,0.00,,,0.00,163,Wunderground v.1.15,2013-07-02 14:19:00,
2013-07-02 07:25:00,65.0,59.4,29.85,SE,146,0.0,3.0,82,0.00,,,0.00,181,Wunderground v.1.15,2013-07-02 14:25:00,
2013-07-02 07:31:00,65.3,59.7,29.85,SE,146,0.0,3.0,82,0.00,,,0.00,197,Wunderground v.1.15,2013-07-02 14:31:00,
2013-07-02 07:36:00,65.8,59.8,29.85,SE,146,0.0,3.0,81,0.00,,,0.00,213,Wunderground v.1.15,2013-07-02 14:36:00,
2013-07-02 07:41:00,66.3,60.3,29.85,SE,146,0.0,3.0,81,0.00,,,0.00,227,Wunderground v.1.15,2013-07-02 14:41:00,
2013-07-02 07:47:00,66.8,60.4,29.85,SE,146,0.0,3.0,80,0.00,,,0.00,244,Wunderground v.1.15,2013-07-02 14:47:00,
2013-07-02 07:53:00,67.2,60.5,29.85,SE,146,0.0,3.0,79,0.00,,,0.00,264,Wunderground v.1.15,2013-07-02 14:53:00,
2013-07-02 07:59:00,67.6,60.5,29.86,SE,146,0.0,3.0,78,0.00,,,0.00,283,Wunderground v.1.15,2013-07-02 14:59:00,
2013-07-02 08:04:00,68.0,60.5,29.86,SE,146,0.0,3.0,77,0.00,,,0.00,299,Wunderground v.1.15,2013-07-02 15:04:00,
2013-07-02 08:09:00,68.5,61.0,29.86,SE,146,0.0,3.0,77,0.00,,,0.00,315,Wunderground v.1.15,2013-07-02 15:09:00,
2013-07-02 08:14:00,69.0,61.1,29.86,SE,146,0.0,3.0,76,0.00,,,0.00,330,Wunderground v.1.15,2013-07-02 15:14:00,
2013-07-02 08:20:00,69.7,61.0,29.86,SE,146,0.0,3.0,74,0.00,,,0.00,350,Wunderground v.1.15,2013-07-02 15:20:00,
2013-07-02 08:25:00,70.1,61.4,29.86,SE,145,0.0,3.0,74,0.00,,,0.00,367,Wunderground v.1.15,2013-07-02 15:25:00,
2013-07-02 08:31:00,70.8,61.7,29.87,SE,146,0.0,3.0,73,0.00,,,0.00,385,Wunderground v.1.15,2013-07-02 15:31:00,
2013-07-02 08:37:00,71.3,61.8,29.88,SE,146,0.0,3.0,72,0.00,,,0.00,404,Wunderground v.1.15,2013-07-02 15:37:00,
2013-07-02 08:43:00,71.8,61.9,29.88,SE,146,1.0,3.0,71,0.00,,,0.00,420,Wunderground v.1.15,2013-07-02 15:43:00,
2013-07-02 08:49:00,72.2,61.9,29.87,SE,139,1.0,5.0,70,0.00,,,0.00,438,Wunderground v.1.15,2013-07-02 15:49:00,
2013-07-02 08:55:00,72.7,61.9,29.88,SE,144,1.0,3.0,69,0.00,,,0.00,457,Wunderground v.1.15,2013-07-02 15:55:00,
2013-07-02 09:00:00,73.1,61.9,29.88,ESE,117,1.0,1.0,68,0.00,,,0.00,473,Wunderground v.1.15,2013-07-02 16:00:00,
2013-07-02 09:05:00,73.4,61.8,29.88,ESE,107,1.0,4.0,67,0.00,,,0.00,489,Wunderground v.1.15,2013-07-02 16:05:00,
2013-07-02 09:10:00,73.5,61.9,29.88,ESE,110,1.0,1.0,67,0.00,,,0.00,504,Wunderground v.1.15,2013-07-02 16:10:00,
2013-07-02 09:16:00,74.1,62.0,29.88,ESE,110,0.0,3.0,66,0.00,,,0.00,524,Wunderground v.1.15,2013-07-02 16:16:00,
2013-07-02 09:22:00,74.5,62.0,29.88,ESE,109,0.0,3.0,65,0.00,,,0.00,541,Wunderground v.1.15,2013-07-02 16:22:00,
2013-07-02 09:27:00,74.8,62.2,29.88,ESE,117,0.0,4.0,65,0.00,,,0.00,555,Wunderground v.1.15,2013-07-02 16:27:00,
2013-07-02 09:33:00,75.3,62.3,29.88,ESE,120,1.0,3.0,64,0.00,,,0.00,570,Wunderground v.1.15,2013-07-02 16:33:00,
2013-07-02 09:39:00,76.0,62.9,29.88,SE,129,1.0,3.0,64,0.00,,,0.00,585,Wunderground v.1.15,2013-07-02 16:39:00,
2013-07-02 09:45:00,76.9,62.9,29.88,SE,130,1.0,3.0,62,0.00,,,0.00,603,Wunderground v.1.15,2013-07-02 16:45:00,
2013-07-02 09:50:00,77.8,62.8,29.88,ESE,118,0.0,3.0,60,0.00,,,0.00,615,Wunderground v.1.15,2013-07-02 16:50:00,
2013-07-02 09:56:00,78.5,62.5,29.88,ESE,118,0.0,3.0,58,0.00,,,0.00,635,Wunderground v.1.15,2013-07-02 16:56:00,
2013-07-02 10:01:00,79.1,63.1,29.88,ESE,119,0.0,3.0,58,0.00,,,0.00,643,Wunderground v.1.15,2013-07-02 17:01:00,
2013-07-02 10:06:00,79.9,63.3,29.88,ESE,119,0.0,3.0,57,0.00,,,0.00,654,Wunderground v.1.15,2013-07-02 17:06:00,
2013-07-02 10:11:00,80.5,62.8,29.87,ESE,120,0.0,3.0,55,0.00,,,0.00,670,Wunderground v.1.15,2013-07-02 17:11:00,
2013-07-02 10:17:00,81.0,63.8,29.88,ESE,121,0.0,3.0,56,0.00,,,0.00,687,Wunderground v.1.15,2013-07-02 17:17:00,
2013-07-02 10:22:00,81.6,63.9,29.87,ESE,121,0.0,3.0,55,0.00,,,0.00,700,Wunderground v.1.15,2013-07-02 17:22:00,
2013-07-02 10:28:00,82.5,64.2,29.87,ESE,121,0.0,3.0,54,0.00,,,0.00,714,Wunderground v.1.15,2013-07-02 17:28:00,
2013-07-02 10:33:00,83.4,64.5,29.87,ESE,121,0.0,3.0,53,0.00,,,0.00,726,Wunderground v.1.15,2013-07-02 17:33:00,
2013-07-02 10:39:00,84.1,64.6,29.87,ESE,121,0.0,3.0,52,0.00,,,0.00,738,Wunderground v.1.15,2013-07-02 17:39:00,
2013-07-02 10:45:00,84.6,65.0,29.87,SE,133,0.0,3.0,52,0.00,,,0.00,752,Wunderground v.1.15,2013-07-02 17:45:00,
2013-07-02 10:51:00,84.7,64.6,29.87,ESE,107,1.0,3.0,51,0.00,,,0.00,763,Wunderground v.1.15,2013-07-02 17:51:00,
2013-07-02 10:56:00,84.9,64.8,29.87,East,99,1.0,3.0,51,0.00,,,0.00,772,Wunderground v.1.15,2013-07-02 17:56:00,
2013-07-02 11:01:00,85.9,65.7,29.88,East,98,0.0,3.0,51,0.00,,,0.00,777,Wunderground v.1.15,2013-07-02 18:01:00,
2013-07-02 11:07:00,87.1,65.6,29.87,East,95,0.0,3.0,49,0.00,,,0.00,793,Wunderground v.1.15,2013-07-02 18:07:00,
2013-07-02 11:13:00,87.5,66.0,29.87,East,94,1.0,3.0,49,0.00,,,0.00,802,Wunderground v.1.15,2013-07-02 18:13:00,
2013-07-02 11:18:00,88.1,65.9,29.87,East,94,1.0,3.0,48,0.00,,,0.00,810,Wunderground v.1.15,2013-07-02 18:18:00,
2013-07-02 11:24:00,89.5,67.2,29.87,East,94,0.0,3.0,48,0.00,,,0.00,823,Wunderground v.1.15,2013-07-02 18:24:00,
2013-07-02 11:29:00,90.3,66.7,29.87,East,98,0.0,3.0,46,0.00,,,0.00,831,Wunderground v.1.15,2013-07-02 18:29:00,
2013-07-02 11:35:00,90.6,66.3,29.87,East,98,1.0,3.0,45,0.00,,,0.00,846,Wunderground v.1.15,2013-07-02 18:35:00,
2013-07-02 11:41:00,90.6,67.0,29.86,East,98,0.0,3.0,46,0.00,,,0.00,853,Wunderground v.1.15,2013-07-02 18:41:00,
2013-07-02 11:46:00,91.5,67.2,29.86,SE,124,0.0,3.0,45,0.00,,,0.00,860,Wunderground v.1.15,2013-07-02 18:46:00,
2013-07-02 11:52:00,92.0,67.6,29.86,SE,124,1.0,3.0,45,0.00,,,0.00,868,Wunderground v.1.15,2013-07-02 18:52:00,
2013-07-02 11:58:00,92.6,68.2,29.86,SE,126,0.0,3.0,45,0.00,,,0.00,875,Wunderground v.1.15,2013-07-02 18:58:00,
2013-07-02 12:03:00,93.2,67.4,29.85,ESE,117,0.0,3.0,43,0.00,,,0.00,881,Wunderground v.1.15,2013-07-02 19:03:00,
2013-07-02 12:08:00,93.1,66.6,29.85,NW,304,1.0,3.0,42,0.00,,,0.00,888,Wunderground v.1.15,2013-07-02 19:08:00,
2013-07-02 12:14:00,92.4,66.0,29.85,WNW,297,2.0,4.0,42,0.00,,,0.00,891,Wunderground v.1.15,2013-07-02 19:14:00,
2013-07-02 12:19:00,91.9,66.2,29.85,WNW,293,2.0,4.0,43,0.00,,,0.00,898,Wunderground v.1.15,2013-07-02 19:19:00,
2013-07-02 12:24:00,92.4,66.0,29.85,WNW,295,1.0,3.0,42,0.00,,,0.00,900,Wunderground v.1.15,2013-07-02 19:24:00,
2013-07-02 12:30:00,92.4,65.3,29.85,WNW,288,2.0,4.0,41,0.00,,,0.00,909,Wunderground v.1.15,2013-07-02 19:30:00,
2013-07-02 12:35:00,92.6,65.5,29.85,West,275,2.0,4.0,41,0.00,,,0.00,911,Wunderground v.1.15,2013-07-02 19:35:00,
2013-07-02 12:40:00,93.4,65.5,29.85,WNW,283,1.0,1.0,40,0.00,,,0.00,914,Wunderground v.1.15,2013-07-02 19:40:00,
2013-07-02 12:46:00,93.8,66.5,29.84,NW,304,1.0,4.0,41,0.00,,,0.00,916,Wunderground v.1.15,2013-07-02 19:46:00,
2013-07-02 12:52:00,94.9,66.8,29.85,NW,315,1.0,3.0,40,0.00,,,0.00,921,Wunderground v.1.15,2013-07-02 19:52:00,
2013-07-02 12:58:00,95.4,67.2,29.85,NW,311,0.0,3.0,40,0.00,,,0.00,926,Wunderground v.1.15,2013-07-02 19:58:00,
2013-07-02 13:03:00,95.7,68.9,29.84,SSE,154,1.0,4.0,42,0.00,,,0.00,926,Wunderground v.1.15,2013-07-02 20:03:00,
2013-07-02 13:08:00,96.6,68.3,29.84,ESE,116,2.0,4.0,40,0.00,,,0.00,932,Wunderground v.1.15,2013-07-02 20:08:00,
2013-07-02 13:14:00,96.0,68.5,29.84,SE,131,3.0,6.0,41,0.00,,,0.00,860,Wunderground v.1.15,2013-07-02 20:14:00,
2013-07-02 13:19:00,96.5,68.9,29.84,ESE,112,3.0,6.0,41,0.00,,,0.00,886,Wunderground v.1.15,2013-07-02 20:19:00,
2013-07-02 13:25:00,96.4,68.1,29.84,ESE,115,3.0,6.0,40,0.00,,,0.00,925,Wunderground v.1.15,2013-07-02 20:25:00,
2013-07-02 13:31:00,96.2,68.0,29.84,East,101,3.0,4.0,40,0.00,,,0.00,891,Wunderground v.1.15,2013-07-02 20:31:00,
2013-07-02 13:37:00,96.1,67.9,29.84,ESE,112,3.0,4.0,40,0.00,,,0.00,926,Wunderground v.1.15,2013-07-02 20:37:00,
2013-07-02 13:42:00,96.1,67.1,29.84,SE,126,3.0,4.0,39,0.00,,,0.00,925,Wunderground v.1.15,2013-07-02 20:42:00,
2013-07-02 13:48:00,96.4,67.4,29.84,SSE,149,2.0,5.0,39,0.00,,,0.00,923,Wunderground v.1.15,2013-07-02 20:48:00,
2013-07-02 13:53:00,96.8,67.8,29.84,SSE,148,2.0,3.0,39,0.00,,,0.00,919,Wunderground v.1.15,2013-07-02 20:53:00,
2013-07-02 13:58:00,97.2,67.4,29.84,SSE,150,2.0,3.0,38,0.00,,,0.00,914,Wunderground v.1.15,2013-07-02 20:58:00,
2013-07-02 14:04:00,97.1,67.3,29.84,SSE,151,2.0,4.0,38,0.00,,,0.00,912,Wunderground v.1.15,2013-07-02 21:04:00,
2013-07-02 14:10:00,97.3,67.4,29.83,SSE,150,3.0,3.0,38,0.00,,,0.00,911,Wunderground v.1.15,2013-07-02 21:10:00,
2013-07-02 14:16:00,97.4,67.5,29.83,SSE,150,3.0,8.0,38,0.00,,,0.00,905,Wunderground v.1.15,2013-07-02 21:16:00,
2013-07-02 14:21:00,97.4,66.8,29.83,SE,127,3.0,3.0,37,0.00,,,0.00,898,Wunderground v.1.15,2013-07-02 21:21:00,
2013-07-02 14:26:00,97.6,67.7,29.83,SE,134,3.0,8.0,38,0.00,,,0.00,893,Wunderground v.1.15,2013-07-02 21:26:00,
2013-07-02 14:31:00,97.0,66.4,29.84,SSW,195,4.0,4.0,37,0.00,,,0.00,882,Wunderground v.1.15,2013-07-02 21:31:00,
2013-07-02 14:37:00,96.6,66.8,29.84,SW,227,4.0,9.0,38,0.00,,,0.00,874,Wunderground v.1.15,2013-07-02 21:37:00,
2013-07-02 14:43:00,96.6,66.1,29.84,South,173,3.0,6.0,37,0.00,,,0.00,863,Wunderground v.1.15,2013-07-02 21:43:00,
2013-07-02 14:48:00,96.8,66.2,29.84,East,101,3.0,6.0,37,0.00,,,0.00,856,Wunderground v.1.15,2013-07-02 21:48:00,
2013-07-02 14:53:00,96.2,65.7,29.84,ESE,115,3.0,7.0,37,0.00,,,0.00,849,Wunderground v.1.15,2013-07-02 21:53:00,
2013-07-02 14:58:00,95.8,66.1,29.84,South,178,3.0,8.0,38,0.00,,,0.00,842,Wunderground v.1.15,2013-07-02 21:58:00,
2013-07-02 15:04:00,96.4,65.9,29.83,SE,144,2.0,3.0,37,0.00,,,0.00,833,Wunderground v.1.15,2013-07-02 22:04:00,
2013-07-02 15:09:00,96.7,66.9,29.84,WNW,286,2.0,3.0,38,0.00,,,0.00,828,Wunderground v.1.15,2013-07-02 22:09:00,
2013-07-02 15:14:00,96.8,66.2,29.84,West,271,3.0,8.0,37,0.00,,,0.00,819,Wunderground v.1.15,2013-07-02 22:14:00,
2013-07-02 15:20:00,96.0,65.5,29.83,NW,313,4.0,5.0,37,0.00,,,0.00,807,Wunderground v.1.15,2013-07-02 22:20:00,
2013-07-02 15:26:00,95.8,65.4,29.83,WNW,300,3.0,5.0,37,0.00,,,0.00,795,Wunderground v.1.15,2013-07-02 22:26:00,
2013-07-02 15:32:00,95.6,65.9,29.84,North,355,3.0,4.0,38,0.00,,,0.00,786,Wunderground v.1.15,2013-07-02 22:32:00,
2013-07-02 15:37:00,95.3,65.7,29.84,West,280,2.0,4.0,38,0.00,,,0.00,777,Wunderground v.1.15,2013-07-02 22:37:00,
2013-07-02 15:42:00,94.9,65.3,29.84,NW,310,3.0,7.0,38,0.00,,,0.00,766,Wunderground v.1.15,2013-07-02 22:42:00,
2013-07-02 15:48:00,94.2,64.7,29.84,NW,305,3.0,9.0,38,0.00,,,0.00,761,Wunderground v.1.15,2013-07-02 22:48:00,
2013-07-02 15:54:00,93.7,65.0,29.84,NNW,339,4.0,4.0,39,0.00,,,0.00,749,Wunderground v.1.15,2013-07-02 22:54:00,
2013-07-02 16:00:00,93.6,65.6,29.84,NNW,341,4.0,4.0,40,0.00,,,0.00,735,Wunderground v.1.15,2013-07-02 23:00:00,
2013-07-02 16:06:00,93.7,65.0,29.84,West,275,3.0,8.0,39,0.00,,,0.00,719,Wunderground v.1.15,2013-07-02 23:06:00,
2013-07-02 16:11:00,93.6,64.9,29.85,NW,304,3.0,3.0,39,0.00,,,0.00,708,Wunderground v.1.15,2013-07-02 23:11:00,
2013-07-02 16:16:00,93.2,65.3,29.85,NNW,334,4.0,5.0,40,0.00,,,0.00,698,Wunderground v.1.15,2013-07-02 23:16:00,
2013-07-02 16:22:00,92.9,65.0,29.85,NNW,332,4.0,5.0,40,0.00,,,0.00,684,Wunderground v.1.15,2013-07-02 23:22:00,
2013-07-02 16:27:00,91.8,64.0,29.85,NNW,338,5.0,10.0,40,0.00,,,0.00,671,Wunderground v.1.15,2013-07-02 23:27:00,
2013-07-02 16:30:00,91.4,64.4,29.85,WNW,300,5.0,5.0,41,0.00,,,0.00,664,Wunderground v.1.15,2013-07-02 23:30:00,
2013-07-02 16:36:00,91.1,63.4,29.85,NNW,343,4.0,6.0,40,0.00,,,0.00,652,Wunderground v.1.15,2013-07-02 23:36:00,
2013-07-02 16:42:00,90.6,63.7,29.85,WSW,242,4.0,4.0,41,0.00,,,0.00,635,Wunderground v.1.15,2013-07-02 23:42:00,
2013-07-02 16:48:00,90.1,63.2,29.86,NW,304,5.0,9.0,41,0.00,,,0.00,622,Wunderground v.1.15,2013-07-02 23:48:00,
2013-07-02 16:54:00,89.8,63.0,29.86,WNW,301,4.0,6.0,41,0.00,,,0.00,617,Wunderground v.1.15,2013-07-02 23:54:00,
2013-07-02 17:00:00,89.3,62.5,29.86,NW,326,4.0,4.0,41,0.00,,,0.00,510,Wunderground v.1.15,2013-07-03 00:00:00,
2013-07-02 17:01:00,89.2,62.4,29.86,NNW,342,4.0,6.0,41,0.00,,,0.00,494,Wunderground v.1.15,2013-07-03 00:01:00,
2013-07-02 17:07:00,88.7,62.7,29.86,West,278,5.0,9.0,42,0.00,,,0.00,424,Wunderground v.1.15,2013-07-03 00:07:00,
2013-07-02 17:09:00,88.3,61.6,29.86,NW,311,6.0,10.0,41,0.00,,,0.00,353,Wunderground v.1.15,2013-07-03 00:09:00,
2013-07-02 17:14:00,86.7,61.5,29.86,NNW,333,7.0,9.0,43,0.00,,,0.00,276,Wunderground v.1.15,2013-07-03 00:14:00,
2013-07-02 17:19:00,85.4,61.0,29.86,WNW,303,6.0,9.0,44,0.00,,,0.00,353,Wunderground v.1.15,2013-07-03 00:19:00,
2013-07-02 17:25:00,84.3,60.0,29.86,NNW,333,5.0,13.0,44,0.00,,,0.00,434,Wunderground v.1.15,2013-07-03 00:25:00,
2013-07-02 17:30:00,83.0,60.1,29.86,NW,315,6.0,10.0,46,0.00,,,0.00,517,Wunderground v.1.15,2013-07-03 00:30:00,
2013-07-02 17:35:00,81.9,60.3,29.87,NW,311,8.0,10.0,48,0.00,,,0.00,513,Wunderground v.1.15,2013-07-03 00:35:00,
2013-07-02 17:39:00,81.2,59.6,29.87,NNW,343,7.0,10.0,48,0.00,,,0.00,522,Wunderground v.1.15,2013-07-03 00:39:00,
2013-07-02 17:44:00,80.7,59.8,29.86,West,268,6.0,8.0,49,0.00,,,0.00,529,Wunderground v.1.15,2013-07-03 00:44:00,
2013-07-02 17:50:00,80.1,59.2,29.87,NW,313,6.0,6.0,49,0.00,,,0.00,504,Wunderground v.1.15,2013-07-03 00:50:00,
2013-07-02 17:56:00,79.7,60.0,29.87,WNW,298,6.0,7.0,51,0.00,,,0.00,487,Wunderground v.1.15,2013-07-03 00:56:00,
2013-07-02 18:02:00,79.7,60.0,29.87,NW,319,4.0,6.0,51,0.00,,,0.00,450,Wunderground v.1.15,2013-07-03 01:02:00,
2013-07-02 18:03:00,79.7,60.0,29.87,WNW,296,4.0,6.0,51,0.00,,,0.00,448,Wunderground v.1.15,2013-07-03 01:03:00,
2013-07-02 18:08:00,79.7,59.4,29.87,NW,306,5.0,10.0,50,0.00,,,0.00,434,Wunderground v.1.15,2013-07-03 01:08:00,
2013-07-02 18:11:00,79.6,59.9,29.87,WNW,301,5.0,5.0,51,0.00,,,0.00,439,Wunderground v.1.15,2013-07-03 01:11:00,
2013-07-02 18:16:00,79.5,59.8,29.87,NNW,344,4.0,8.0,51,0.00,,,0.00,425,Wunderground v.1.15,2013-07-03 01:16:00,
2013-07-02 18:21:00,79.5,59.8,29.87,WSW,246,4.0,8.0,51,0.00,,,0.00,404,Wunderground v.1.15,2013-07-03 01:21:00,
2013-07-02 18:27:00,79.0,59.3,29.86,NNW,327,5.0,8.0,51,0.00,,,0.00,373,Wunderground v.1.15,2013-07-03 01:27:00,
2013-07-02 18:30:00,78.7,59.0,29.86,NW,324,5.0,5.0,51,0.00,,,0.00,360,Wunderground v.1.15,2013-07-03 01:30:00,
2013-07-02 18:36:00,78.4,59.3,29.86,NNW,333,4.0,7.0,52,0.00,,,0.00,341,Wunderground v.1.15,2013-07-03 01:36:00,
2013-07-02 18:42:00,78.1,59.0,29.86,West,272,4.0,8.0,52,0.00,,,0.00,323,Wunderground v.1.15,2013-07-03 01:42:00,
2013-07-02 18:47:00,77.7,59.2,29.87,West,261,4.0,8.0,53,0.00,,,0.00,308,Wunderground v.1.15,2013-07-03 01:47:00,
2013-07-02 18:50:00,77.6,58.6,29.87,WNW,293,3.0,3.0,52,0.00,,,0.00,301,Wunderground v.1.15,2013-07-03 01:50:00,
2013-07-02 18:51:00,77.6,59.1,29.87,West,279,4.0,4.0,53,0.00,,,0.00,297,Wunderground v.1.15,2013-07-03 01:51:00,
2013-07-02 18:56:00,77.4,58.4,29.87,NW,325,3.0,6.0,52,0.00,,,0.00,271,Wunderground v.1.15,2013-07-03 01:56:00,
2013-07-02 19:01:00,76.9,58.5,29.87,NNW,338,3.0,5.0,53,0.00,,,0.00,255,Wunderground v.1.15,2013-07-03 02:01:00,
2013-07-02 19:07:00,76.4,58.5,29.87,WNW,284,4.0,9.0,54,0.00,,,0.00,237,Wunderground v.1.15,2013-07-03 02:07:00,
2013-07-02 19:13:00,75.8,58.5,29.87,NW,307,3.0,12.0,55,0.00,,,0.00,207,Wunderground v.1.15,2013-07-03 02:13:00,
2013-07-02 19:18:00,75.4,58.1,29.87,NW,321,4.0,12.0,55,0.00,,,0.00,185,Wunderground v.1.15,2013-07-03 02:18:00,
2013-07-02 19:23:00,74.9,58.1,29.87,West,273,3.0,3.0,56,0.00,,,0.00,162,Wunderground v.1.15,2013-07-03 02:23:00,
2013-07-02 19:28:00,74.4,57.7,29.88,WNW,287,3.0,4.0,56,0.00,,,0.00,141,Wunderground v.1.15,2013-07-03 02:28:00,
2013-07-02 19:33:00,73.7,57.5,29.88,NW,304,4.0,5.0,57,0.00,,,0.00,123,Wunderground v.1.15,2013-07-03 02:33:00,
2013-07-02 19:40:00,72.9,57.3,29.88,WNW,300,3.0,5.0,58,0.00,,,0.00,100,Wunderground v.1.15,2013-07-03 02:40:00,
2013-07-02 19:46:00,72.1,57.0,29.88,WNW,298,2.0,5.0,59,0.00,,,0.00,83,Wunderground v.1.15,2013-07-03 02:46:00,
2013-07-02 19:47:00,72.0,56.9,29.88,NW,325,2.0,5.0,59,0.00,,,0.00,76,Wunderground v.1.15,2013-07-03 02:47:00,
2013-07-02 19:52:00,71.2,56.6,29.89,NNW,328,2.0,5.0,60,0.00,,,0.00,51,Wunderground v.1.15,2013-07-03 02:52:00,
2013-07-02 19:58:00,70.1,56.5,29.88,NW,311,3.0,6.0,62,0.00,,,0.00,44,Wunderground v.1.15,2013-07-03 02:58:00,
2013-07-02 20:03:00,69.5,56.3,29.88,NNW,340,3.0,6.0,63,0.00,,,0.00,40,Wunderground v.1.15,2013-07-03 03:03:00,
2013-07-02 20:04:00,69.3,56.6,29.88,NNW,336,3.0,6.0,64,0.00,,,0.00,40,Wunderground v.1.15,2013-07-03 03:04:00,
2013-07-02 20:09:00,68.6,56.4,29.88,NW,313,3.0,6.0,65,0.00,,,0.00,30,Wunderground v.1.15,2013-07-03 03:09:00,
2013-07-02 20:15:00,67.9,56.1,29.88,NW,314,3.0,5.0,66,0.00,,,0.00,25,Wunderground v.1.15,2013-07-03 03:15:00,
2013-07-02 20:20:00,67.4,56.1,29.88,NW,325,2.0,4.0,67,0.00,,,0.00,19,Wunderground v.1.15,2013-07-03 03:20:00,
2013-07-02 20:25:00,66.8,55.9,29.88,NW,306,3.0,6.0,68,0.00,,,0.00,14,Wunderground v.1.15,2013-07-03 03:25:00,
2013-07-02 20:27:00,66.5,56.0,29.88,NW,317,3.0,6.0,69,0.00,,,0.00,12,Wunderground v.1.15,2013-07-03 03:27:00,
2013-07-02 20:33:00,66.0,55.9,29.89,NNW,340,2.0,3.0,70,0.00,,,0.00,7,Wunderground v.1.15,2013-07-03 03:33:00,
2013-07-02 20:38:00,65.8,56.1,29.90,NNW,342,2.0,3.0,71,0.00,,,0.00,0,Wunderground v.1.15,2013-07-03 03:38:00,
2013-07-02 20:41:00,65.7,56.0,29.89,NNW,340,1.0,2.0,71,0.00,,,0.00,0,Wunderground v.1.15,2013-07-03 03:41:00,
2013-07-02 20:43:00,65.6,55.9,29.89,NNW,340,1.0,3.0,71,0.00,,,0.00,0,Wunderground v.1.15,2013-07-03 03:43:00,
2013-07-02 20:48:00,65.5,55.8,29.90,NNW,341,1.0,3.0,71,0.00,,,0.00,0,Wunderground v.1.15,2013-07-03 03:48:00,
2013-07-02 20:54:00,65.4,56.1,29.89,WNW,303,1.0,4.0,72,0.00,,,0.00,0,Wunderground v.1.15,2013-07-03 03:54:00,
2013-07-02 20:58:00,65.3,56.0,29.89,NW,306,0.0,4.0,72,0.00,,,0.00,0,Wunderground v.1.15,2013-07-03 03:58:00,
2013-07-02 21:01:00,65.3,56.0,29.89,West,263,0.0,3.0,72,0.00,,,0.00,0,Wunderground v.1.15,2013-07-03 04:01:00,
2013-07-02 21:02:00,65.2,55.9,29.89,West,263,0.0,3.0,72,0.00,,,0.00,0,Wunderground v.1.15,2013-07-03 04:02:00,
2013-07-02 21:06:00,65.2,55.9,29.89,NW,305,1.0,3.0,72,0.00,,,0.00,0,Wunderground v.1.15,2013-07-03 04:06:00,
2013-07-02 21:09:00,65.1,56.2,29.89,NW,309,1.0,4.0,73,0.00,,,0.00,0,Wunderground v.1.15,2013-07-03 04:09:00,
2013-07-02 21:13:00,65.0,56.1,29.89,WNW,300,1.0,3.0,73,0.00,,,0.00,0,Wunderground v.1.15,2013-07-03 04:13:00,
2013-07-02 21:19:00,64.8,55.9,29.89,NW,309,1.0,3.0,73,0.00,,,0.00,0,Wunderground v.1.15,2013-07-03 04:19:00,
2013-07-02 21:25:00,64.6,56.1,29.89,NW,306,1.0,3.0,74,0.00,,,0.00,0,Wunderground v.1.15,2013-07-03 04:25:00,
2013-07-02 21:31:00,64.5,56.0,29.89,NW,307,1.0,3.0,74,0.00,,,0.00,0,Wunderground v.1.15,2013-07-03 04:31:00,
2013-07-02 21:33:00,64.4,55.9,29.89,NW,307,1.0,3.0,74,0.00,,,0.00,0,Wunderground v.1.15,2013-07-03 04:33:00,
2013-07-02 21:36:00,64.4,55.9,29.89,NW,306,0.0,3.0,74,0.00,,,0.00,0,Wunderground v.1.15,2013-07-03 04:36:00,
2013-07-02 21:41:00,64.3,55.8,29.90,NW,306,1.0,3.0,74,0.00,,,0.00,0,Wunderground v.1.15,2013-07-03 04:41:00,
2013-07-02 21:47:00,64.0,55.9,29.90,NW,319,1.0,4.0,75,0.00,,,0.00,0,Wunderground v.1.15,2013-07-03 04:47:00,
2013-07-02 21:48:00,64.0,55.9,29.90,NW,314,1.0,6.0,75,0.00,,,0.00,0,Wunderground v.1.15,2013-07-03 04:48:00,
2013-07-02 21:50:00,63.9,55.8,29.90,NW,311,1.0,1.0,75,0.00,,,0.00,0,Wunderground v.1.15,2013-07-03 04:50:00,
2013-07-02 21:55:00,63.6,55.9,29.90,NW,314,1.0,3.0,76,0.00,,,0.00,0,Wunderground v.1.15,2013-07-03 04:55:00,
2013-07-02 22:01:00,63.3,55.6,29.91,WNW,293,1.0,3.0,76,0.00,,,0.00,0,Wunderground v.1.15,2013-07-03 05:01:00,
2013-07-02 22:06:00,63.1,55.8,29.91,WNW,296,1.0,3.0,77,0.00,,,0.00,0,Wunderground v.1.15,2013-07-03 05:06:00,
2013-07-02 22:10:00,62.9,55.6,29.91,NW,309,2.0,3.0,77,0.00,,,0.00,0,Wunderground v.1.15,2013-07-03 05:10:00,
2013-07-02 22:15:00,62.4,55.4,29.91,NW,316,3.0,4.0,78,0.00,,,0.00,0,Wunderground v.1.15,2013-07-03 05:15:00,
2013-07-02 22:21:00,62.2,55.6,29.91,NW,317,1.0,3.0,79,0.00,,,0.00,0,Wunderground v.1.15,2013-07-03 05:21:00,
2013-07-02 22:25:00,62.2,55.6,29.90,NW,315,1.0,3.0,79,0.00,,,0.00,0,Wunderground v.1.15,2013-07-03 05:25:00,
2013-07-02 22:30:00,62.1,55.5,29.90,NW,315,1.0,3.0,79,0.00,,,0.00,0,Wunderground v.1.15,2013-07-03 05:30:00,
2013-07-02 22:36:00,62.0,55.8,29.90,NW,311,2.0,3.0,80,0.00,,,0.00,0,Wunderground v.1.15,2013-07-03 05:36:00,
2013-07-02 22:41:00,61.8,55.6,29.90,NW,317,2.0,5.0,80,0.00,,,0.00,0,Wunderground v.1.15,2013-07-03 05:41:00,
2013-07-02 22:47:00,61.5,55.6,29.90,NW,306,3.0,5.0,81,0.00,,,0.00,0,Wunderground v.1.15,2013-07-03 05:47:00,
2013-07-02 22:52:00,61.3,55.4,29.90,NW,307,2.0,3.0,81,0.00,,,0.00,0,Wunderground v.1.15,2013-07-03 05:52:00,
2013-07-02 22:55:00,61.3,55.4,29.90,NW,321,2.0,4.0,81,0.00,,,0.00,0,Wunderground v.1.15,2013-07-03 05:55:00,
2013-07-02 22:59:00,61.2,55.3,29.90,NNW,333,3.0,5.0,81,0.00,,,0.00,0,Wunderground v.1.15,2013-07-03 05:59:00,
2013-07-02 23:00:00,61.2,55.3,29.90,NNW,333,3.0,4.0,81,0.00,,,0.00,0,Wunderground v.1.15,2013-07-03 06:00:00,
2013-07-02 23:02:00,61.2,55.3,29.91,NNW,329,3.0,5.0,81,0.00,,,0.00,0,Wunderground v.1.15,2013-07-03 06:02:00,
2013-07-02 23:08:00,61.0,55.5,29.91,NNW,327,2.0,5.0,82,0.00,,,0.00,0,Wunderground v.1.15,2013-07-03 06:08:00,
2013-07-02 23:13:00,60.9,55.4,29.91,NW,322,1.0,3.0,82,0.00,,,0.00,0,Wunderground v.1.15,2013-07-03 06:13:00,
2013-07-02 23:16:00,60.9,55.4,29.91,NNW,334,2.0,5.0,82,0.00,,,0.00,0,Wunderground v.1.15,2013-07-03 06:16:00,
2013-07-02 23:19:00,60.8,55.3,29.91,NNW,336,2.0,5.0,82,0.00,,,0.00,0,Wunderground v.1.15,2013-07-03 06:19:00,
2013-07-02 23:22:00,60.7,55.2,29.91,NNW,342,3.0,5.0,82,0.00,,,0.00,0,Wunderground v.1.15,2013-07-03 06:22:00,
2013-07-02 23:25:00,60.5,55.3,29.91,NW,320,3.0,5.0,83,0.00,,,0.00,0,Wunderground v.1.15,2013-07-03 06:25:00,
2013-07-02 23:28:00,60.5,55.3,29.91,NW,317,3.0,5.0,83,0.00,,,0.00,0,Wunderground v.1.15,2013-07-03 06:28:00,
2013-07-02 23:29:00,60.4,55.2,29.92,NW,317,3.0,5.0,83,0.00,,,0.00,0,Wunderground v.1.15,2013-07-03 06:29:00,
2013-07-02 23:34:00,60.3,55.1,29.91,NW,312,2.0,6.0,83,0.00,,,0.00,0,Wunderground v.1.15,2013-07-03 06:34:00,
2013-07-02 23:40:00,60.2,55.3,29.91,NW,313,1.0,3.0,84,0.00,,,0.00,0,Wunderground v.1.15,2013-07-03 06:40:00,
2013-07-02 23:45:00,60.1,55.2,29.91,NW,313,1.0,3.0,84,0.00,,,0.00,0,Wunderground v.1.15,2013-07-03 06:45:00,
2013-07-02 23:47:00,60.1,55.2,29.92,NW,313,1.0,3.0,84,0.00,,,0.00,0,Wunderground v.1.15,2013-07-03 06:47:00,
2013-07-02 23:53:00,60.1,55.2,29.91,NNW,336,1.0,5.0,84,0.00,,,0.00,0,Wunderground v.1.15,2013-07-03 06:53:00,
2013-07-02 23:56:00,60.0,55.2,29.91,NNW,333,1.0,5.0,84,0.00,,,0.00,0,Wunderground v.1.15,2013-07-03 06:56:00,